TimeEST,TemperatureF,Dew PointF,Humidity,Sea Level PressureIn,VisibilityMPH,Wind Direction,Wind SpeedMPH,Gust SpeedMPH,PrecipitationIn,Events,Conditions,WindDirDegrees,DateUTC
12:00 AM,68.0,62.6,83,29.93,6.2,WSW,11.5,-,N/A,,Mostly Cloudy,240,2014-01-22 05:00:00
1:00 AM,70,64,76,29.93,8,West,10.4,,,,Partly Cloudy,260,2014-01-22 06:00:00
1:00 AM,69.8,64.4,83,29.93,6.2,West,10.4,-,N/A,,Mostly Cloudy,260,2014-01-22 06:00:00
2:00 AM,69.8,59.0,68,29.91,6.2,West,13.8,-,N/A,,Mostly Cloudy,270,2014-01-22 07:00:00
3:00 AM,69.8,59.0,68,29.91,6.2,WNW,17.3,-,N/A,,Mostly Cloudy,290,2014-01-22 08:00:00
4:00 AM,69,62,71,29.92,8,WNW,16.1,,,,Partly Cloudy,290,2014-01-22 09:00:00
4:00 AM,68.0,62.6,83,29.91,6.2,WNW,16.1,-,N/A,,Mostly Cloudy,290,2014-01-22 09:00:00
5:00 AM,69.8,57.2,64,29.92,6.2,West,16.1,-,N/A,,Mostly Cloudy,270,2014-01-22 10:00:00
6:00 AM,69.8,59.0,68,29.94,6.2,WNW,15.0,-,N/A,,Mostly Cloudy,290,2014-01-22 11:00:00
7:00 AM,71.6,64.4,78,29.96,6.2,WNW,15.0,-,N/A,Rain,Light Rain Showers,290,2014-01-22 12:00:00
8:00 AM,69.8,59.0,68,29.98,6.2,WNW,15.0,-,N/A,,Partly Cloudy,290,2014-01-22 13:00:00
9:00 AM,69.8,59.0,68,30.00,6.2,WNW,11.5,-,N/A,,Mostly Cloudy,290,2014-01-22 14:00:00
10:00 AM,71.6,60.8,69,30.03,6.2,WNW,13.8,-,N/A,,Scattered Clouds,290,2014-01-22 15:00:00
11:00 AM,69.8,55.4,60,30.05,6.2,WNW,15.0,-,N/A,,Partly Cloudy,300,2014-01-22 16:00:00
12:00 PM,69.8,53.6,56,30.04,6.2,WNW,11.5,-,N/A,,Scattered Clouds,290,2014-01-22 17:00:00
1:00 PM,70,58,56,30.03,8,West,12.7,,,,Partly Cloudy,280,2014-01-22 18:00:00
1:00 PM,69.8,57.2,64,30.02,6.2,West,12.7,-,N/A,,Scattered Clouds,280,2014-01-22 18:00:00
2:00 PM,69.8,50.0,49,30.02,6.2,NNW,9.2,-,N/A,,Mostly Cloudy,340,2014-01-22 19:00:00
3:00 PM,68.0,48.2,49,30.04,6.2,North,10.4,-,N/A,,Mostly Cloudy,360,2014-01-22 20:00:00
4:00 PM,70,54,46,30.05,8,NNW,8.1,,,,Scattered Clouds,330,2014-01-22 21:00:00
4:00 PM,69.8,53.6,56,30.05,6.2,NNW,8.1,-,N/A,,Scattered Clouds,330,2014-01-22 21:00:00
5:00 PM,68.0,50.0,52,30.07,6.2,NNW,9.2,-,N/A,,Scattered Clouds,330,2014-01-22 22:00:00
6:00 PM,66.2,51.8,60,30.10,6.2,NW,6.9,-,N/A,,Scattered Clouds,310,2014-01-22 23:00:00
7:00 PM,66,57,64,30.12,8,North,6.9,,,,Scattered Clouds,0,2014-01-23 00:00:00
7:00 PM,66.2,57.2,73,30.11,6.2,North,6.9,-,N/A,,Scattered Clouds,360,2014-01-23 00:00:00
8:00 PM,64.4,50.0,59,30.13,-9999.0,NNW,5.8,-,N/A,,Clear,330,2014-01-23 01:00:00
9:00 PM,64.4,50.0,59,30.14,-9999.0,North,4.6,-,N/A,,Clear,360,2014-01-23 02:00:00
10:00 PM,65,55,62,30.15,8,North,4.6,,,,Scattered Clouds,0,2014-01-23 03:00:00
10:00 PM,64.4,55.4,73,30.15,6.2,North,4.6,-,N/A,,Partly Cloudy,360,2014-01-23 03:00:00
11:00 PM,64.4,50.0,59,30.17,6.2,North,4.6,-,N/A,,Partly Cloudy,360,2014-01-23 04:00:00